When you browse on this site, cookies collect data to enhance your experience and personalize the content and advertising you see.
Visit our Privacy Policy to learn more. By continuing to use the site, you agree to this use of cookies and data.
  • en Suisse
  • Liste des pays
  • À 7 jours
  • Température de l'eau
  • Carte satellitaire
  • Carte météo
  • Widgets météo
  • user-avatar
    Se connecter

    Météo par heure à Achtarak

    Ce jour, 23 Mars, Samedi

    Heure Température Précipitation Vent Pression Humidité
    00:00 +2°C° 0 mm 1 m/s 658 mmHg 53%
    01:00 +2°C° 0 mm 1 m/s 658 mmHg 54%
    02:00 +2°C° 0 mm 1 m/s 658 mmHg 55%
    03:00 +1°C° 0 mm 1 m/s 657 mmHg 58%
    04:00 +1°C° 0 mm 1 m/s 657 mmHg 60%
    05:00 +1°C° 0 mm 1 m/s 657 mmHg 62%
    06:00 +1°C° 0 mm 1 m/s 657 mmHg 64%
    07:00 +1°C° 0 mm 2 m/s 657 mmHg 61%
    08:00 +2°C° 0 mm 2 m/s 656 mmHg 57%
    09:00 +3°C° 0 mm 3 m/s 656 mmHg 54%
    10:00 +4°C° 0 mm 3 m/s 656 mmHg 53%
    11:00 +4°C° 0 mm 3 m/s 655 mmHg 52%
    12:00 +5°C° 0 mm 3 m/s 655 mmHg 51%
    13:00 +7°C° 0.1 mm 3 m/s 654 mmHg 51%
    14:00 +7°C° 0.1 mm 3 m/s 654 mmHg 51%
    15:00 +7°C° 0 mm 3 m/s 653 mmHg 53%
    16:00 +5°C° 0.2 mm 3 m/s 653 mmHg 54%
    17:00 +5°C° 0.2 mm 3 m/s 653 mmHg 55%
    18:00 +4°C° 0.2 mm 3 m/s 653 mmHg 56%
    19:00 +5°C° 0.1 mm 2 m/s 653 mmHg 56%
    20:00 +4°C° 0.1 mm 2 m/s 653 mmHg 57%
    21:00 +3°C° 0.1 mm 2 m/s 653 mmHg 57%
    22:00 +3°C° 0 mm 2 m/s 653 mmHg 58%
    23:00 +3°C° 0 mm 2 m/s 653 mmHg 58%

    Demain, 24 Mars, Dimanche

    Heure Température Précipitation Vent Pression Humidité
    00:00 +3°C° 0 mm 2 m/s 652 mmHg 59%
    01:00 +3°C° 0.1 mm 2 m/s 652 mmHg 61%
    02:00 +3°C° 0.1 mm 2 m/s 652 mmHg 64%
    03:00 +3°C° 0.1 mm 2 m/s 652 mmHg 66%
    04:00 +3°C° 0.5 mm 2 m/s 652 mmHg 69%
    05:00 +3°C° 0.5 mm 2 m/s 652 mmHg 71%
    06:00 +3°C° 0.5 mm 2 m/s 652 mmHg 73%
    07:00 +3°C° 0.5 mm 2 m/s 652 mmHg 71%
    08:00 +4°C° 0.5 mm 2 m/s 652 mmHg 68%
    09:00 +5°C° 0.5 mm 2 m/s 652 mmHg 66%
    10:00 +6°C° 0.7 mm 1 m/s 652 mmHg 65%
    11:00 +7°C° 0.7 mm 1 m/s 651 mmHg 65%
    12:00 +7°C° 0.7 mm 1 m/s 651 mmHg 64%
    13:00 +8°C° 0.4 mm 1 m/s 651 mmHg 63%
    14:00 +7°C° 0.4 mm 2 m/s 651 mmHg 62%
    15:00 +7°C° 0.4 mm 2 m/s 651 mmHg 61%
    16:00 +7°C° 0.4 mm 2 m/s 651 mmHg 63%
    17:00 +5°C° 0.4 mm 3 m/s 651 mmHg 64%
    18:00 +4°C° 0.4 mm 3 m/s 651 mmHg 66%
    19:00 +4°C° 0.5 mm 3 m/s 652 mmHg 67%
    20:00 +3°C° 0.5 mm 3 m/s 652 mmHg 68%
    21:00 +2°C° 0.5 mm 3 m/s 652 mmHg 69%
    22:00 +2°C° 0.2 mm 3 m/s 652 mmHg 69%
    23:00 +2°C° 0.2 mm 3 m/s 652 mmHg 69%

    Après-demain, 25 Mars, Lundi

    Heure Température Précipitation Vent Pression Humidité
    00:00 +1°C° 0.2 mm 3 m/s 652 mmHg 69%
    01:00 +1°C° 0.1 mm 3 m/s 652 mmHg 68%
    02:00 +1°C° 0.1 mm 3 m/s 652 mmHg 68%
    03:00 0°C° 0.1 mm 3 m/s 652 mmHg 68%
    04:00 0°C° 0 mm 3 m/s 652 mmHg 68%
    05:00 0°C° 0 mm 3 m/s 651 mmHg 68%
    06:00 0°C° 0 mm 3 m/s 651 mmHg 68%
    07:00 0°C° 0 mm 4 m/s 651 mmHg 66%
    08:00 +3°C° 0 mm 4 m/s 651 mmHg 64%
    09:00 +4°C° 0 mm 4 m/s 652 mmHg 61%
    10:00 +5°C° 0 mm 3 m/s 651 mmHg 60%
    11:00 +7°C° 0 mm 3 m/s 651 mmHg 59%
    12:00 +8°C° 0 mm 3 m/s 651 mmHg 58%
    13:00 +8°C° 0 mm 3 m/s 651 mmHg 58%
    14:00 +8°C° 0 mm 3 m/s 651 mmHg 57%
    15:00 +9°C° 0 mm 3 m/s 650 mmHg 57%
    16:00 +8°C° 0.1 mm 3 m/s 651 mmHg 58%
    17:00 +7°C° 0.1 mm 3 m/s 651 mmHg 59%
    18:00 +7°C° 0.1 mm 3 m/s 651 mmHg 61%
    19:00 +5°C° 0.2 mm 3 m/s 652 mmHg 62%
    20:00 +6°C° 0.2 mm 2 m/s 653 mmHg 64%
    21:00 +5°C° 0.2 mm 2 m/s 653 mmHg 66%
    22:00 +5°C° 0.2 mm 2 m/s 653 mmHg 66%
    23:00 +4°C° 0.2 mm 2 m/s 653 mmHg 67%

    26 Mars, Mardi

    Heure Température Précipitation Vent Pression Humidité
    00:00 +4°C° 0.2 mm 2 m/s 653 mmHg 68%
    01:00 +4°C° 0.1 mm 2 m/s 653 mmHg 69%
    02:00 +3°C° 0.1 mm 2 m/s 653 mmHg 70%
    03:00 +4°C° 0.1 mm 1 m/s 653 mmHg 70%
    04:00 +4°C° 0.1 mm 1 m/s 654 mmHg 71%
    05:00 +4°C° 0.1 mm 1 m/s 654 mmHg 71%
    06:00 +4°C° 0.1 mm 1 m/s 654 mmHg 72%
    07:00 +5°C° 0.2 mm 1 m/s 654 mmHg 69%
    08:00 +5°C° 0.2 mm 1 m/s 655 mmHg 67%
    09:00 +5°C° 0.2 mm 0 m/s 655 mmHg 65%
    10:00 +6°C° 0.1 mm 0 m/s 655 mmHg 63%
    11:00 +7°C° 0.1 mm 0 m/s 654 mmHg 61%
    12:00 +9°C° 0.1 mm 1 m/s 654 mmHg 59%
    13:00 +10°C° 0.1 mm 1 m/s 654 mmHg 58%
    14:00 +10°C° 0.1 mm 1 m/s 654 mmHg 57%
    15:00 +11°C° 0.1 mm 1 m/s 653 mmHg 55%
    16:00 +10°C° 0.1 mm 1 m/s 653 mmHg 57%
    17:00 +10°C° 0.1 mm 1 m/s 653 mmHg 58%
    18:00 +9°C° 0.1 mm 1 m/s 654 mmHg 59%
    19:00 +8°C° 0.1 mm 1 m/s 654 mmHg 61%
    20:00 +7°C° 0.1 mm 2 m/s 654 mmHg 63%
    21:00 +6°C° 0.1 mm 2 m/s 654 mmHg 65%
    22:00 +5°C° 0.1 mm 2 m/s 654 mmHg 67%
    23:00 +5°C° 0.1 mm 2 m/s 654 mmHg 68%

    27 Mars, Mercredi

    Heure Température Précipitation Vent Pression Humidité
    00:00 +6°C° 0.1 mm 1 m/s 654 mmHg 69%
    01:00 +5°C° 0.1 mm 1 m/s 654 mmHg 69%
    02:00 +5°C° 0.1 mm 1 m/s 653 mmHg 70%
    03:00 +4°C° 0.1 mm 0 m/s 653 mmHg 70%
    04:00 +4°C° 0.1 mm 0 m/s 653 mmHg 71%
    05:00 +4°C° 0.1 mm 1 m/s 653 mmHg 71%
    06:00 +4°C° 0.1 mm 1 m/s 653 mmHg 72%
    07:00 +5°C° 0.2 mm 1 m/s 654 mmHg 69%
    08:00 +6°C° 0.2 mm 1 m/s 654 mmHg 66%
    09:00 +7°C° 0.2 mm 1 m/s 654 mmHg 63%
    10:00 +7°C° 0.1 mm 2 m/s 654 mmHg 61%
    11:00 +8°C° 0.1 mm 2 m/s 654 mmHg 59%
    12:00 +9°C° 0.1 mm 2 m/s 654 mmHg 57%
    13:00 +10°C° 0.1 mm 2 m/s 654 mmHg 56%
    14:00 +10°C° 0.1 mm 2 m/s 654 mmHg 55%
    15:00 +10°C° 0.1 mm 2 m/s 654 mmHg 53%
    16:00 +10°C° 0.1 mm 2 m/s 654 mmHg 54%
    17:00 +9°C° 0.1 mm 2 m/s 654 mmHg 56%
    18:00 +8°C° 0.1 mm 2 m/s 654 mmHg 57%
    19:00 +9°C° 0.2 mm 1 m/s 655 mmHg 59%
    20:00 +8°C° 0.2 mm 1 m/s 655 mmHg 60%
    21:00 +7°C° 0.2 mm 1 m/s 656 mmHg 62%
    22:00 +7°C° 0.2 mm 1 m/s 655 mmHg 63%
    23:00 +7°C° 0.2 mm 1 m/s 655 mmHg 64%

    28 Mars, Jeudi

    Heure Température Précipitation Vent Pression Humidité
    00:00 +6°C° 0.2 mm 1 m/s 655 mmHg 65%
    01:00 +6°C° 0.2 mm 1 m/s 655 mmHg 66%
    02:00 +5°C° 0.2 mm 0 m/s 655 mmHg 67%
    03:00 +4°C° 0.2 mm 0 m/s 655 mmHg 69%
    04:00 +4°C° 0.2 mm 0 m/s 655 mmHg 70%
    05:00 +4°C° 0.2 mm 0 m/s 656 mmHg 70%
    06:00 +4°C° 0.2 mm 0 m/s 656 mmHg 71%
    07:00 +5°C° 0.2 mm 0 m/s 656 mmHg 68%
    08:00 +6°C° 0.2 mm 1 m/s 656 mmHg 65%
    09:00 +7°C° 0.2 mm 1 m/s 657 mmHg 62%
    10:00 +8°C° 0.2 mm 1 m/s 657 mmHg 60%
    11:00 +9°C° 0.2 mm 1 m/s 657 mmHg 59%
    12:00 +9°C° 0.2 mm 1 m/s 657 mmHg 57%
    13:00 +9°C° 0.3 mm 1 m/s 656 mmHg 57%
    14:00 +9°C° 0.3 mm 1 m/s 656 mmHg 56%
    15:00 +8°C° 0.3 mm 2 m/s 656 mmHg 56%
    16:00 +9°C° 0.3 mm 1 m/s 656 mmHg 58%
    17:00 +8°C° 0.3 mm 1 m/s 656 mmHg 59%
    18:00 +8°C° 0.3 mm 1 m/s 656 mmHg 61%
    19:00 +7°C° 0.2 mm 1 m/s 657 mmHg 62%
    20:00 +7°C° 0.2 mm 1 m/s 657 mmHg 64%
    21:00 +6°C° 0.2 mm 1 m/s 657 mmHg 66%
    22:00 +6°C° 0.3 mm 1 m/s 657 mmHg 67%
    23:00 +6°C° 0.3 mm 1 m/s 657 mmHg 68%
    Voir plus